Location: Newark
(34.7667°N, 118.4167°W)
Time: 07:37:39
(UTC+00:00)

Hubble Space Telescope - Visible Passes

Search period start: 21 October 2019 00:00
Search period end: 31 October 2019 00:00
Orbit: 536 x 540 km, 28.5° (Epoch: 20 October)

Date Brightness Start Highest point End Pass type
(mag) Time Alt. Az. Time Alt. Az. Time Alt. Az.
26 Oct 3.6 13:11:39 10° S 13:12:57 11° SSE 13:14:15 10° SE visible
27 Oct 3.4 13:00:06 10° S 13:02:15 14° SSE 13:04:25 10° SE visible
28 Oct 3.2 12:48:55 10° SSW 12:51:35 17° SSE 12:54:15 10° ESE visible
29 Oct 2.9 12:38:50 14° SSW 12:40:55 20° SSE 12:43:55 10° ESE visible
30 Oct 2.6 12:29:07 20° S 12:30:15 22° SSE 12:33:30 10° ESE visible
